Location: Poughquag
(41.6090°N, 73.6820°W)
Time: 09:44:44
(UTC-05:00)

SR - Pass Details

Date: 11 December 2023
Orbit: 574 x 868 km, 66.7° (Epoch: 25 February)

Event Time Altitude Azimuth Distance (km) Brightness Sun altitude
Rises 16:52:31 0° 338° (NNW) 3,456 ? -5.4°
Reaches altitude 10° 16:55:53 10° 357° (N) 2,496 ? -6.0°
Maximum altitude 16:59:47 18° 39° (NE) 1,943 ? -6.7°
Drops below altitude 10° 17:03:32 10° 82° (E) 2,403 ? -7.3°
Enters shadow 17:04:52 - 92° (E) 2,742 ? -7.5°
Sets 17:06:41 0° 101° (E) 3,279 - -7.8°
